Weather History for TNCC - April, 2013

Change the Weather History Date:

Tuesday, April 30, 2013

  Actual Average Record
Temperature  
Mean Temperature 82 °F -  
Max Temperature 87 °F 88 °F 134 °F (1997)
Min Temperature 76 °F 77 °F 75 °F (2011)
Cooling Degree Days 16    
Growing Degree Days 32 (Base 50)    
Moisture  
Dew Point 76 °F    
Average Humidity 80    
Maximum Humidity 94    
Minimum Humidity 61    
Precipitation  
Precipitation 0.00 in 0.03 in - ()
Sea Level Pressure  
Sea Level Pressure 29.88 in    
Wind  
Wind Speed 10 mph ()    
Max Wind Speed 16 mph    
Max Gust Speed -    
Visibility 6.2 miles    
Events Rain    
Averages and records for this station are not official NWS values.
T = Trace of Precipitation, MM = Missing Value Source: Averaged Metar Reports

Daily Weather History Graph

Daily Weather History Graph

Search for Another Location

Airport or City:

Trip Planner

Search our weather history database for the weather conditions in past years. The results will help you decide how hot, cold, wet, or windy it might be!

Date:

Astronomy

Apr. 30, 2013 Rise Set
Actual Time 6:16 AM AST 6:49 PM AST
Civil Twilight 5:54 AM AST 7:11 PM AST
Nautical Twilight 5:28 AM AST 7:37 PM AST
Astronomical Twilight 5:02 AM AST 8:03 PM AST
Moon 11:53 PM AST (4/30) 10:51 AM AST (4/30)
Length of Visible Light 13h 17m
Length of Day
12h 33m
Waning Gibbous, 70% of the Moon is Illuminated
Apr 30
Waning Gibbous
May 2
Last Quarter
May 9
New
May 18
First Quarter
May 25
Full

Hourly Weather History & Observations

Time (AST) Temp. Heat Index Dew Point Humidity Pressure Visibility Wind Dir Wind Speed Gust Speed Precip Events Conditions
12:00 AM 80.6 °F 86.2 °F 75.2 °F 84% 29.89 in 6.2 mi East 11.5 mph - N/A   Scattered Clouds
1:00 AM 77.0 °F - 73.4 °F 89% 29.89 in 3.1 mi ESE 16.1 mph - N/A Rain Rain Showers
2:00 AM 79 °F - 76 °F 88% 29.88 in 9 mi ESE 9.2 mph - -   Partly Cloudy
2:00 AM 78.8 °F - 77.0 °F 94% 29.86 in 6.2 mi ESE 6.9 mph - N/A   Scattered Clouds
3:00 AM 78.8 °F - 75.2 °F 89% 29.86 in 6.2 mi East 10.4 mph - N/A   Scattered Clouds
4:00 AM 78.8 °F - 75.2 °F 89% 29.86 in 6.2 mi SE 6.9 mph - N/A   Partly Cloudy
5:00 AM 79 °F - 75 °F 85% 29.86 in 22 mi ESE 8.1 mph - -   Scattered Clouds
5:00 AM 78.8 °F - 75.2 °F 89% 29.86 in 6.2 mi ESE 8.1 mph - N/A   Partly Cloudy
6:00 AM 78.8 °F - 75.2 °F 89% 29.86 in 6.2 mi ESE 8.1 mph - N/A   Scattered Clouds
7:00 AM 78.8 °F - 75.2 °F 89% 29.89 in 6.2 mi ESE 8.1 mph - N/A   Scattered Clouds
8:00 AM 82 °F - 76 °F 76% 29.92 in 22 mi ESE 11.5 mph - -   Partly Cloudy
8:00 AM 82.4 °F 90.9 °F 77.0 °F 84% 29.92 in 6.2 mi ESE 11.5 mph - N/A   Scattered Clouds
9:00 AM 82.4 °F 89.5 °F 75.2 °F 79% 29.92 in 6.2 mi ESE 15.0 mph - N/A   Scattered Clouds
10:00 AM 84.2 °F 92.3 °F 75.2 °F 74% 29.95 in 6.2 mi ESE 11.5 mph - N/A   Partly Cloudy
11:00 AM 85 °F - 76 °F 67% 29.94 in 25 mi East 12.7 mph - -   Scattered Clouds
11:00 AM 86.0 °F 96.9 °F 77.0 °F 74% 29.92 in 6.2 mi East 12.7 mph - N/A   Partly Cloudy
12:00 PM 84.2 °F 92.3 °F 75.2 °F 74% 29.92 in 6.2 mi East 12.7 mph - N/A   Partly Cloudy
1:00 PM 86.0 °F 96.9 °F 77.0 °F 74% 29.92 in 6.2 mi East 13.8 mph - N/A   Partly Cloudy
2:00 PM 86 °F - 76 °F 66% 29.89 in 25 mi East 13.8 mph - -   Scattered Clouds
2:00 PM 86.0 °F 95.1 °F 75.2 °F 70% 29.89 in 6.2 mi East 15.0 mph - N/A   Partly Cloudy
3:00 PM 86.0 °F 95.1 °F 75.2 °F 70% 29.86 in 6.2 mi East 15.0 mph - N/A   Partly Cloudy
4:00 PM 86.0 °F 93.4 °F 73.4 °F 66% 29.83 in 6.2 mi East 15.0 mph - N/A   Partly Cloudy
5:00 PM 86 °F - 74 °F 61% 29.84 in 25 mi East 13.8 mph - -   Scattered Clouds
5:00 PM 86.0 °F 95.1 °F 75.2 °F 70% 29.83 in 6.2 mi East 12.7 mph - N/A   Partly Cloudy
6:00 PM 84.2 °F 94.1 °F 77.0 °F 79% 29.83 in 6.2 mi East 8.1 mph - N/A   Partly Cloudy
7:00 PM 80.6 °F 86.2 °F 75.2 °F 84% 29.86 in 6.2 mi East 12.7 mph - N/A   Partly Cloudy
8:00 PM 81 °F - 76 °F 82% 29.87 in 25 mi East 10.4 mph - -   Scattered Clouds
8:00 PM 80.6 °F 87.1 °F 77.0 °F 89% 29.86 in 6.2 mi East 11.5 mph - N/A   Partly Cloudy
9:00 PM 80.6 °F 87.1 °F 77.0 °F 89% 29.89 in 6.2 mi East 10.4 mph - N/A   Partly Cloudy
10:00 PM 80.6 °F 87.1 °F 77.0 °F 89% 29.89 in 6.2 mi East 10.4 mph - N/A   Partly Cloudy
11:00 PM 81 °F - 76 °F 82% 29.92 in 25 mi East 11.5 mph - -   Partly Cloudy
11:00 PM 80.6 °F 87.1 °F 77.0 °F 89% 29.92 in 6.2 mi East 11.5 mph - N/A   Scattered Clouds